Powrót do katalogu

STARLINK-33535

AktywnyŁącznośćVLEO
NORAD 63417·PAYLOAD·🇺🇸 United States

Wystrzelony Mar 31, 2025 z Cape Canaveral Space Force Station

Loading…

Następne Przeloty (najbliższe 24 godziny)

TLE

ŚwieżeSource: CelesTrak SupGP

Epoka: Sep 15, 2026, 02:41 UTC

1 63417C 25065U   26258.11229167  .00057209  00000+0  20723-2 0  2587
2 63417  43.0023 117.2220 0001464 278.8799 309.9165 15.27547663    15

Śledź STARLINK-33535 w czasie rzeczywistym z AllMySat

Download on the App Store